This demonstration page uses our WeatherBlox Daily Observations layout. Learn more.

41.55636, -103.73856

Hourly Observations for August 5, 2019

Temp ( °F °C ) Dew Point ( °F °C ) Humidity (%) Winds ( mph kmh ) Pressure ( in mb ) Visibility ( mi km ) Precip ( " mm )
12:58 am 00:58 Mostly Cloudy 82 27.9 57 13.7 42 42 NNW 5 7 29.93 1014 10 16.0934 0 0
1:58 am 01:58 Partly Cloudy 78 25.7 51 10.8 39 39 SW 10 17 29.95 1014 10 16.0934 0 0
2:58 am 02:58 Mostly Cloudy 73 22.6 53 11.7 50 50 SSW 9 15 29.95 1014 10 16.0934 0 0
3:58 am 03:58 Mostly Cloudy 75 24 52 10.9 44 44 WSW 10 17 29.98 1015 10 16.0934 0 0
4:58 am 04:58 Partly Cloudy 72 22.2 52 11.3 50 50 SE 10 17 29.97 1015 10 16.0934 0 0
5:58 am 05:58 Mostly Cloudy with Heavy Showers 67 19.2 60 15.8 81 81 WNW 14 22 30.08 1019 6 9.65604 0.18 4.572
6:58 am 06:58 Mostly Cloudy 65 18.1 60 15.8 87 87 NE 6 9 30.05 1018 10 16.0934 0.03 0.762
7:58 am 07:58 Mostly Cloudy with Mist and Fog 63 17 61 16 94 94 NNW 14 22 30.07 1018 4 6.43736 0 0
8:58 am 08:58 Mostly Cloudy with Light Showers 63 17 61 16.2 95 95 NE 9 15 30.06 1018 4 6.43736 0 0
9:58 am 09:58 Mostly Cloudy 62 16.7 60 15.6 93 93 SSE 10 17 30.02 1017 9 14.48406 0 0
10:58 am 10:58 Mostly Cloudy 62 16.5 60 15.4 93 93 S 13 20 29.99 1016 10 16.0934 0 0
11:58 am 11:58 Mostly Cloudy 62 16.6 60 15.6 94 94 SSW 12 19 30.02 1017 7 11.26538 0 0
12:58 pm 12:58 Mostly Cloudy 63 17 61 15.9 93 93 SW 13 20 30.03 1017 9 14.48406 0 0
1:58 pm 13:58 Mostly Cloudy 65 18.4 61 16.3 88 88 SW 13 20 30.03 1017 10 16.0934 0 0
2:58 pm 14:58 Mostly Sunny 71 21.4 60 15.4 69 69 SW 10 17 30.04 1017 10 16.0934 0 0
3:58 pm 15:58 Mostly Sunny 76 24.2 53 11.4 45 45 WNW 13 20 30.03 1017 10 16.0934 0 0
4:58 pm 16:58 Sunny 79 26.1 54 12.3 42 42 NNW 15 24 30.04 1017 10 16.0934 0 0
5:58 pm 17:58 Sunny 81 27 50 10 34 34 NNW 17 28 30.04 1017 10 16.0934 0 0
6:58 pm 18:58 Sunny 81 27.4 51 10.6 35 35 N 13 20 30.02 1017 10 16.0934 0 0
7:58 pm 19:58 Sunny 83 28.1 51 10.8 34 34 N 15 24 30.02 1017 10 16.0934 0 0
8:58 pm 20:58 Sunny 83 28.1 52 11.3 35 35 N 8 13 30.01 1016 10 16.0934 0 0
9:58 pm 21:58 Sunny 84 29 49 9.7 30 30 ENE 10 17 30 1016 10 16.0934 0 0
10:58 pm 22:58 Sunny 84 28.7 50 10 31 31 NNE 12 19 29.99 1016 10 16.0934 0 0
11:58 pm 23:58 Sunny 82 27.9 47 8.5 30 30 NE 14 22 30 1016 10 16.0934 0 0

Powered by AerisWeather